User: anonymous   Login
Location: Jetmore Oil Field
(38.1181°N, 99.9337°W)
Time: 05:44:32
(UTC+00:00)
Language:

Hubble Space Telescope - Orbit

View from above orbital plane
View from above orbital plane
View from above satellite
View from above satellite

Ground track
Ground track

The orbit data is extracted from the following two-line orbital elements,

1 20580U 90037B   21209.17978341  .00000631  00000-0  27197-4 0  9998
2 20580  28.4692 155.5951 0002885 139.1941 349.4962 15.09691053517177
Epoch (UTC): 28 July 2021 04:18:53
Eccentricity: 0.0002885
inclination: 28.4692°
perigee height: 535 km
apogee height: 539 km
right ascension of ascending node: 155.5951°
argument of perigee: 139.1941°
revolutions per day: 15.09691053
mean anomaly at epoch: 349.4962°
orbit number at epoch: 51717

The dashed part of the orbit path shows where the satellite is in the earth's shadow,  

DLR